DECAYED

FENGYUN 1C DEB, 30519 (Decayed)

Orbit data source: Space-Track

FENGYUN 1C DEB, 30519 was space debris in SSO originally from a launch on Mon, 10 May 1999 UTC launched from the Taiyaun Space Center, China (TSC). Fengyun 1C debris stems from the Chinese weather satellite Fengyun-1C, which was intentionally destroyed by a Chinese anti-satellite missile in 2007. This event dramatically increased the amount of space debris, with thousands of trackable fragments posing hazards to satellites and human spaceflight. The Fengyun 1C debris cloud has become a focal point in discussions about space sustainability and the need for international regulations to prevent the creation of new debris.

Not visible in the next 10 days
Identifier
30519, 1999-025AJH
Orbit
Decayed
Country
Flag of CNCN / PRC
Related business
Manufacturer
Unknown
Mission
Decayed spacecraft
Bus & Motor
Unknown
Mass
Unknown
Launch date (UTC)
1999-05-10 (27 years ago)
Launch vehicle
Unknown
Launch site
Taiyaun Space Center, China (TSC)
Object type
Payload
Rocket body
Debris
Shape & HBR
Unknown shape, 0.1 m
Radar Cross Section
Medium (>0.1 m² and <1 m²)

Expand to show TLE details & history
Last TLE update: 1 year ago

TLE from 1 year ago
0 FENGYUN 1C DEB
1 30519U 99025AJH 25271.89487799  .02652382  81133-2  40409-2 0  9996
2 30519  98.8071 260.5544 0018614 125.9853 234.3154 16.06137837  6316
Epoch: 2025-09-28T21:28Z
TLE epoch observation values (Epoch: 2025-09-28T21:28:37.458Z)
Latitude
0.00006°
Longitude
-69.50808°
Altitude
267.842 km
Speed
7.742 km/s
True Right ascension
17h 22m 13s
True Declination
0° 00' 00"
Sunlit
Object was in daylight at epoch
Visualization orbit readout
Latitude
Unknown
Longitude
Unknown
Altitude
Unknown
Speed
Unknown
Apparent Right ascension
Unknown
Apparent Declination
Unknown
Sunlit
N/A
Visualization observer readout
Local Sidereal Time
01:26:13
Azimuth
Unknown
Elevation
Unknown
Doppler factor
Unknown
Orbital elements
Apogee altitude
266.725 km
Perigee altitude
242.034 km
Semi-major axis
6,632.516 km
Eccentricity
0.00186
Inclination
98.8071°
RAAN
260.5544°
Arg. of periapsis
125.9853°
True anomaly
234.14238°
Mean anomaly
234.3154°
Eccentric anomaly
234.22887°
Mean motion
4.01815 °/min
Orbital period
89.59 mins
BSTAR
0.0040409
Loading maneuver chart data...
Computing Atmospheric mass density...
Loading historical data...
Loading historical data...
Loading historical data...
Loading historical data...
Loading historical data...
Loading historical data...
Loading historical data...

Documentation

Showing up to 5 results
|